Simultaneous Nadir Overpasses (SNOs) Predictions

Prediction of SNOs between NOAA-19 and NPP Satellite Orbit:

Table of predicted SNOs for the next 14.0 days since TLE Epoch: 11/7/2020
Index Date (NOAA-19) Time (NOAA-19) Lat,Lon (NOAA-19) SZA (NOAA-19 ) Date (NPP) Time (NPP) Lat,Lon (NPP) SZA (NPP ) Distance(km) Time Diff (sec)
1 11/20/2020 20:18:53 -78.90, 25.37 80.14 11/20/2020 20:19:55 -78.90, 25.21 80.14 3.55 62
2 11/20/2020 21:09:47 78.90,-167.31 99.87 11/20/2020 21:10:40 78.89,-167.39 99.85 2.06 53
3 11/20/2020 22:00:54 -78.88, -0.26 80.13 11/20/2020 22:01:25 -78.91, -0.20 80.12 3.66 31
4 11/20/2020 22:51:48 78.88, 167.06 99.88 11/20/2020 22:52:10 78.90, 167.20 99.88 3.28 22
5 11/20/2020 23:42:54 -78.90, -25.63 80.11 11/20/2020 23:42:55 -78.92, -25.61 80.09 2.33 1
6 11/21/2020 00:33:48 78.90, 141.68 99.91 11/21/2020 00:33:40 78.90, 141.78 99.90 2.19 8
7 11/21/2020 01:24:54 -78.91, -51.01 80.09 11/21/2020 01:24:25 -78.92, -51.02 80.07 1.12 29
8 11/21/2020 02:15:48 78.92, 116.31 99.93 11/21/2020 02:15:10 78.91, 116.37 99.93 1.63 38
